Time,TemperatureF,DewpointF,PressureIn,WindDirection,WindDirectionDegrees,WindSpeedMPH,WindSpeedGustMPH,Humidity,HourlyPrecipIn,Conditions,Clouds,dailyrainin,SoftwareType,DateUTC
2014-11-23 00:01:00,50.5,48.6,30.22,East,91,0.0,0.0,93,0.00,RA,,0.00,WeatherDisplay:10.37,2014-11-22 15:01:00,
2014-11-23 00:06:00,50.4,48.5,30.22,East,91,1.2,0.0,93,0.00,RA,,0.00,WeatherDisplay:10.37,2014-11-22 15:06:00,
2014-11-23 00:11:00,50.2,48.3,30.22,East,91,0.0,0.1,93,0.00,CLR,,0.00,WeatherDisplay:10.37,2014-11-22 15:11:00,
2014-11-23 00:16:00,50.2,48.3,30.22,East,91,1.2,0.0,93,0.00,CLR,,0.00,WeatherDisplay:10.37,2014-11-22 15:16:00,
2014-11-23 00:21:00,50.1,48.2,30.22,East,91,2.3,2.3,93,0.00,CLR,,0.00,WeatherDisplay:10.37,2014-11-22 15:21:00,
2014-11-23 00:26:00,50.3,48.6,30.22,East,91,1.2,1.2,94,0.00,CLR,,0.00,WeatherDisplay:10.37,2014-11-22 15:26:00,
2014-11-23 00:31:00,50.6,48.9,30.22,East,91,1.2,1.2,94,0.00,CLR,,0.00,WeatherDisplay:10.37,2014-11-22 15:31:00,
2014-11-23 00:36:00,50.6,48.9,30.22,East,91,0.0,0.0,94,0.00,CLR,,0.00,WeatherDisplay:10.37,2014-11-22 15:36:00,
2014-11-23 00:41:00,50.5,48.6,30.22,East,91,0.0,0.0,93,0.00,CLR,,0.00,WeatherDisplay:10.37,2014-11-22 15:41:00,
2014-11-23 00:46:00,50.5,48.6,30.22,East,91,0.0,0.0,93,0.00,CLR,,0.00,WeatherDisplay:10.37,2014-11-22 15:46:00,
2014-11-23 00:51:00,50.3,48.4,30.22,East,91,0.0,0.0,93,0.00,CLR,,0.00,WeatherDisplay:10.37,2014-11-22 15:51:00,
2014-11-23 00:56:00,50.0,48.1,30.22,East,91,0.0,0.0,93,0.00,CLR,,0.00,WeatherDisplay:10.37,2014-11-22 15:56:00,
2014-11-23 01:01:00,49.9,48.0,30.22,East,91,0.0,0.0,93,0.00,CLR,,0.00,WeatherDisplay:10.37,2014-11-22 16:01:00,
2014-11-23 01:06:00,49.8,47.9,30.22,East,91,0.0,0.0,93,0.00,CLR,,0.00,WeatherDisplay:10.37,2014-11-22 16:06:00,
2014-11-23 01:11:00,49.7,48.0,30.22,East,91,1.2,1.2,94,0.00,CLR,,0.00,WeatherDisplay:10.37,2014-11-22 16:11:00,
2014-11-23 01:16:00,49.7,48.0,30.22,East,91,0.0,0.0,94,0.00,CLR,,0.00,WeatherDisplay:10.37,2014-11-22 16:16:00,
2014-11-23 01:21:00,49.6,47.9,30.22,East,91,0.0,0.0,94,0.00,CLR,,0.00,WeatherDisplay:10.37,2014-11-22 16:21:00,
2014-11-23 01:26:00,49.4,47.5,30.22,East,91,0.0,0.0,93,0.00,CLR,,0.00,WeatherDisplay:10.37,2014-11-22 16:26:00,
2014-11-23 01:31:00,49.5,47.8,30.22,East,91,0.0,0.0,94,0.00,CLR,,0.00,WeatherDisplay:10.37,2014-11-22 16:31:00,
2014-11-23 01:36:00,49.6,47.9,30.22,East,91,0.0,0.0,94,0.00,CLR,,0.00,WeatherDisplay:10.37,2014-11-22 16:36:00,
2014-11-23 01:41:00,49.3,47.4,30.22,East,91,0.0,0.0,93,0.00,CLR,,0.00,WeatherDisplay:10.37,2014-11-22 16:41:00,
2014-11-23 01:46:00,49.1,47.4,30.22,East,91,0.0,0.0,94,0.00,CLR,,0.00,WeatherDisplay:10.37,2014-11-22 16:46:00,
2014-11-23 01:51:00,49.0,47.3,30.22,East,91,0.0,0.0,94,0.00,CLR,,0.00,WeatherDisplay:10.37,2014-11-22 16:51:00,
2014-11-23 01:56:00,48.9,47.2,30.22,East,91,0.0,0.0,94,0.00,CLR,,0.00,WeatherDisplay:10.37,2014-11-22 16:56:00,
2014-11-23 02:01:00,48.9,47.2,30.21,East,91,0.0,0.0,94,0.00,CLR,,0.00,WeatherDisplay:10.37,2014-11-22 17:01:00,
2014-11-23 02:06:00,48.8,47.2,30.21,East,91,0.0,0.0,94,0.00,CLR,,0.00,WeatherDisplay:10.37,2014-11-22 17:06:00,
2014-11-23 02:11:00,48.7,47.1,30.22,East,91,0.0,0.0,94,0.00,CLR,,0.00,WeatherDisplay:10.37,2014-11-22 17:11:00,
2014-11-23 02:16:00,48.7,47.1,30.21,East,91,0.0,0.0,94,0.00,CLR,,0.00,WeatherDisplay:10.37,2014-11-22 17:16:00,
2014-11-23 02:21:00,48.8,47.2,30.21,East,91,0.0,0.0,94,0.00,CLR,,0.00,WeatherDisplay:10.37,2014-11-22 17:21:00,
2014-11-23 02:26:00,48.8,47.2,30.21,East,91,0.0,0.0,94,0.00,CLR,,0.00,WeatherDisplay:10.37,2014-11-22 17:26:00,
2014-11-23 02:31:00,48.7,47.1,30.21,East,91,0.0,0.0,94,0.01,RA,,0.01,WeatherDisplay:10.37,2014-11-22 17:31:00,
2014-11-23 02:36:00,48.5,46.9,30.21,East,91,0.0,0.0,94,0.01,RA,,0.01,WeatherDisplay:10.37,2014-11-22 17:36:00,
2014-11-23 02:41:00,48.3,46.7,30.21,East,91,0.0,0.0,94,0.01,CLR,,0.01,WeatherDisplay:10.37,2014-11-22 17:41:00,
2014-11-23 02:46:00,48.2,46.6,30.21,East,91,0.0,0.0,94,0.01,CLR,,0.01,WeatherDisplay:10.37,2014-11-22 17:46:00,
2014-11-23 02:51:00,48.3,46.7,30.21,East,91,0.0,0.0,94,0.01,CLR,,0.01,WeatherDisplay:10.37,2014-11-22 17:51:00,
2014-11-23 02:56:00,48.3,46.7,30.21,East,91,0.0,0.0,94,0.01,CLR,,0.01,WeatherDisplay:10.37,2014-11-22 17:56:00,
2014-11-23 03:01:00,48.3,46.7,30.21,East,91,1.2,0.0,94,0.01,CLR,,0.01,WeatherDisplay:10.37,2014-11-22 18:01:00,
2014-11-23 03:06:00,48.3,46.7,30.21,East,91,0.0,0.0,94,0.01,CLR,,0.01,WeatherDisplay:10.37,2014-11-22 18:06:00,
2014-11-23 03:11:00,48.3,46.7,30.21,East,91,0.0,0.0,94,0.01,CLR,,0.01,WeatherDisplay:10.37,2014-11-22 18:11:00,
2014-11-23 03:16:00,48.1,46.5,30.20,East,91,0.0,0.0,94,0.01,CLR,,0.01,WeatherDisplay:10.37,2014-11-22 18:16:00,
2014-11-23 03:21:00,47.9,46.3,30.21,East,91,0.0,0.0,94,0.01,CLR,,0.01,WeatherDisplay:10.37,2014-11-22 18:21:00,
2014-11-23 03:26:00,48.0,46.6,30.21,East,91,0.0,0.0,95,0.01,CLR,,0.01,WeatherDisplay:10.37,2014-11-22 18:26:00,
2014-11-23 03:31:00,48.0,46.4,30.21,East,91,1.2,1.2,94,0.00,CLR,,0.01,WeatherDisplay:10.37,2014-11-22 18:31:00,
2014-11-23 03:36:00,47.9,46.3,30.21,East,91,0.0,0.0,94,0.00,CLR,,0.01,WeatherDisplay:10.37,2014-11-22 18:36:00,
2014-11-23 03:41:00,47.9,46.5,30.21,East,91,0.0,0.0,95,0.00,CLR,,0.01,WeatherDisplay:10.37,2014-11-22 18:41:00,
2014-11-23 03:46:00,48.1,46.7,30.20,East,91,0.0,0.0,95,0.00,CLR,,0.01,WeatherDisplay:10.37,2014-11-22 18:46:00,
2014-11-23 03:51:00,48.0,46.6,30.20,East,91,0.0,0.0,95,0.00,CLR,,0.01,WeatherDisplay:10.37,2014-11-22 18:51:00,
2014-11-23 03:56:00,47.8,46.2,30.21,East,91,0.0,0.0,94,0.00,CLR,,0.01,WeatherDisplay:10.37,2014-11-22 18:56:00,
2014-11-23 04:01:00,47.7,46.1,30.21,East,91,0.0,0.0,94,0.00,CLR,,0.01,WeatherDisplay:10.37,2014-11-22 19:01:00,
2014-11-23 04:06:00,47.6,46.0,30.21,East,91,0.0,0.0,94,0.00,CLR,,0.01,WeatherDisplay:10.37,2014-11-22 19:06:00,
2014-11-23 04:11:00,47.5,45.9,30.21,East,91,0.0,0.0,94,0.00,CLR,,0.01,WeatherDisplay:10.37,2014-11-22 19:11:00,
2014-11-23 04:16:00,47.4,46.0,30.21,East,91,0.0,0.0,95,0.00,CLR,,0.01,WeatherDisplay:10.37,2014-11-22 19:16:00,
2014-11-23 04:22:00,47.4,45.8,30.21,East,91,0.0,0.0,94,0.00,CLR,,0.01,WeatherDisplay:10.37,2014-11-22 19:22:00,
2014-11-23 04:27:00,47.3,45.7,30.22,East,91,0.0,0.0,94,0.00,CLR,,0.01,WeatherDisplay:10.37,2014-11-22 19:27:00,
2014-11-23 04:32:00,47.3,45.7,30.22,East,91,0.0,0.0,94,0.00,CLR,,0.01,WeatherDisplay:10.37,2014-11-22 19:32:00,
2014-11-23 04:37:00,47.2,45.8,30.22,East,91,0.0,0.0,95,0.00,CLR,,0.01,WeatherDisplay:10.37,2014-11-22 19:37:00,
2014-11-23 04:42:00,47.3,45.9,30.21,East,91,0.0,0.0,95,0.00,CLR,,0.01,WeatherDisplay:10.37,2014-11-22 19:42:00,
2014-11-23 04:47:00,47.3,45.9,30.22,East,91,0.0,0.0,95,0.00,CLR,,0.01,WeatherDisplay:10.37,2014-11-22 19:47:00,
2014-11-23 04:52:00,47.3,45.9,30.22,East,91,0.0,0.0,95,0.00,CLR,,0.01,WeatherDisplay:10.37,2014-11-22 19:52:00,
2014-11-23 04:57:00,47.4,46.0,30.22,East,91,0.0,0.0,95,0.00,CLR,,0.01,WeatherDisplay:10.37,2014-11-22 19:57:00,
2014-11-23 05:02:00,47.3,45.9,30.22,East,91,0.0,0.0,95,0.00,CLR,,0.01,WeatherDisplay:10.37,2014-11-22 20:02:00,
2014-11-23 05:07:00,47.2,45.8,30.22,East,91,0.0,0.0,95,0.00,CLR,,0.01,WeatherDisplay:10.37,2014-11-22 20:07:00,
2014-11-23 05:12:00,47.1,45.7,30.21,East,91,0.0,0.0,95,0.00,CLR,,0.01,WeatherDisplay:10.37,2014-11-22 20:12:00,
2014-11-23 05:17:00,46.6,45.0,30.21,East,91,0.0,0.0,94,0.00,CLR,,0.01,WeatherDisplay:10.37,2014-11-22 20:17:00,
2014-11-23 05:22:00,46.4,44.8,30.22,East,91,0.0,0.0,94,0.00,CLR,,0.01,WeatherDisplay:10.37,2014-11-22 20:22:00,
2014-11-23 05:27:00,46.3,44.9,30.22,East,91,0.0,0.0,95,0.00,CLR,,0.01,WeatherDisplay:10.37,2014-11-22 20:27:00,
2014-11-23 05:32:00,46.4,45.0,30.21,East,91,0.0,0.0,95,0.00,CLR,,0.01,WeatherDisplay:10.37,2014-11-22 20:32:00,
2014-11-23 05:37:00,46.5,45.1,30.22,East,91,0.0,0.0,95,0.00,CLR,,0.01,WeatherDisplay:10.37,2014-11-22 20:37:00,
2014-11-23 05:42:00,46.5,45.1,30.22,East,91,0.0,0.0,95,0.00,CLR,,0.01,WeatherDisplay:10.37,2014-11-22 20:42:00,
2014-11-23 05:47:00,46.6,45.2,30.22,East,91,0.0,0.0,95,0.00,CLR,,0.01,WeatherDisplay:10.37,2014-11-22 20:47:00,
2014-11-23 05:52:00,46.6,45.2,30.22,East,91,0.0,0.0,95,0.00,CLR,,0.01,WeatherDisplay:10.37,2014-11-22 20:52:00,
2014-11-23 05:57:00,46.6,45.2,30.22,East,91,0.0,0.0,95,0.00,CLR,,0.01,WeatherDisplay:10.37,2014-11-22 20:57:00,
2014-11-23 06:02:00,46.7,45.3,30.23,East,91,2.3,2.3,95,0.00,CLR,,0.01,WeatherDisplay:10.37,2014-11-22 21:02:00,
2014-11-23 06:07:00,46.7,45.3,30.23,East,91,0.0,0.0,95,0.00,CLR,,0.01,WeatherDisplay:10.37,2014-11-22 21:07:00,
2014-11-23 06:12:00,46.5,45.1,30.23,East,91,0.0,0.0,95,0.00,CLR,,0.01,WeatherDisplay:10.37,2014-11-22 21:12:00,
2014-11-23 06:17:00,46.4,45.0,30.23,East,91,0.0,0.0,95,0.00,CLR,,0.01,WeatherDisplay:10.37,2014-11-22 21:17:00,
2014-11-23 06:22:00,46.4,45.0,30.23,East,91,1.2,1.2,95,0.00,CLR,,0.01,WeatherDisplay:10.37,2014-11-22 21:22:00,
2014-11-23 06:27:00,46.4,45.0,30.24,East,91,0.0,0.0,95,0.00,CLR,,0.01,WeatherDisplay:10.37,2014-11-22 21:27:00,
2014-11-23 06:32:00,46.3,44.9,30.24,East,91,0.0,0.0,95,0.00,CLR,,0.01,WeatherDisplay:10.37,2014-11-22 21:32:00,
2014-11-23 06:37:00,46.4,45.0,30.24,East,91,0.0,0.0,95,0.00,CLR,,0.01,WeatherDisplay:10.37,2014-11-22 21:37:00,
2014-11-23 06:42:00,46.4,45.0,30.24,East,91,0.0,0.0,95,0.00,CLR,,0.01,WeatherDisplay:10.37,2014-11-22 21:42:00,
2014-11-23 06:47:00,46.4,45.0,30.24,East,91,1.2,1.2,95,0.00,CLR,,0.01,WeatherDisplay:10.37,2014-11-22 21:47:00,
2014-11-23 06:52:00,46.3,44.9,30.24,East,91,0.0,0.0,95,0.00,CLR,,0.01,WeatherDisplay:10.37,2014-11-22 21:52:00,
2014-11-23 06:57:00,46.3,44.9,30.24,East,91,0.0,0.0,95,0.00,CLR,,0.01,WeatherDisplay:10.37,2014-11-22 21:57:00,
2014-11-23 07:02:00,46.4,45.0,30.25,East,91,0.0,0.0,95,0.00,CLR,,0.01,WeatherDisplay:10.37,2014-11-22 22:02:00,
2014-11-23 07:07:00,46.4,45.0,30.25,East,91,0.0,0.0,95,0.00,CLR,,0.01,WeatherDisplay:10.37,2014-11-22 22:07:00,
2014-11-23 07:12:00,46.2,44.8,30.25,East,91,1.2,1.2,95,0.00,CLR,,0.01,WeatherDisplay:10.37,2014-11-22 22:12:00,
2014-11-23 07:17:00,46.2,44.8,30.25,East,91,1.2,1.2,95,0.00,CLR,,0.01,WeatherDisplay:10.37,2014-11-22 22:17:00,
2014-11-23 07:22:00,46.2,44.8,30.25,East,91,1.2,0.0,95,0.00,CLR,,0.01,WeatherDisplay:10.37,2014-11-22 22:22:00,
2014-11-23 07:27:00,46.3,44.9,30.25,East,91,0.0,0.0,95,0.00,CLR,,0.01,WeatherDisplay:10.37,2014-11-22 22:27:00,
2014-11-23 07:32:00,46.5,45.1,30.25,East,91,0.0,0.0,95,0.00,CLR,,0.01,WeatherDisplay:10.37,2014-11-22 22:32:00,
2014-11-23 07:37:00,46.8,45.7,30.25,East,91,0.0,0.0,96,0.00,CLR,,0.01,WeatherDisplay:10.37,2014-11-22 22:37:00,
2014-11-23 07:42:00,46.9,45.5,30.25,East,91,0.0,0.0,95,0.00,CLR,,0.01,WeatherDisplay:10.37,2014-11-22 22:42:00,
2014-11-23 07:47:00,46.8,45.4,30.26,East,91,2.3,2.3,95,0.00,CLR,,0.01,WeatherDisplay:10.37,2014-11-22 22:47:00,
2014-11-23 07:52:00,46.7,45.3,30.25,East,91,2.3,2.3,95,0.00,CLR,,0.01,WeatherDisplay:10.37,2014-11-22 22:52:00,
2014-11-23 07:57:00,46.8,45.4,30.25,East,91,0.0,0.0,95,0.00,CLR,,0.01,WeatherDisplay:10.37,2014-11-22 22:57:00,
2014-11-23 08:02:00,47.3,46.2,30.26,East,91,0.0,0.0,96,0.00,CLR,,0.01,WeatherDisplay:10.37,2014-11-22 23:02:00,
2014-11-23 08:07:00,47.8,46.7,30.26,East,91,0.0,0.0,96,0.00,CLR,,0.01,WeatherDisplay:10.37,2014-11-22 23:07:00,
2014-11-23 08:12:00,48.2,47.1,30.26,East,91,0.0,0.0,96,0.00,CLR,,0.01,WeatherDisplay:10.37,2014-11-22 23:12:00,
2014-11-23 08:17:00,48.7,47.6,30.26,East,91,1.2,0.0,96,0.00,CLR,,0.01,WeatherDisplay:10.37,2014-11-22 23:17:00,
2014-11-23 08:22:00,49.3,48.2,30.25,East,91,1.0,1.0,96,0.00,CLR,,0.01,WeatherDisplay:10.37,2014-11-22 23:22:00,
2014-11-23 08:27:00,49.9,48.8,30.25,East,91,0.0,0.0,96,0.00,CLR,,0.01,WeatherDisplay:10.37,2014-11-22 23:27:00,
2014-11-23 08:32:00,50.6,49.5,30.25,East,91,0.0,0.0,96,0.00,CLR,,0.01,WeatherDisplay:10.37,2014-11-22 23:32:00,
2014-11-23 08:37:00,51.1,50.0,30.26,East,91,0.0,0.0,96,0.00,CLR,,0.01,WeatherDisplay:10.37,2014-11-22 23:37:00,
2014-11-23 08:42:00,51.7,50.6,30.26,East,91,0.0,0.0,96,0.00,CLR,,0.01,WeatherDisplay:10.37,2014-11-22 23:42:00,
2014-11-23 08:47:00,52.7,51.6,30.26,East,91,0.0,0.0,96,0.00,CLR,,0.01,WeatherDisplay:10.37,2014-11-22 23:47:00,
2014-11-23 08:52:00,53.5,52.4,30.26,East,91,0.0,0.0,96,0.00,CLR,,0.01,WeatherDisplay:10.37,2014-11-22 23:52:00,
2014-11-23 08:57:00,54.2,53.1,30.26,East,91,0.0,0.0,96,0.00,CLR,,0.01,WeatherDisplay:10.37,2014-11-22 23:57:00,
2014-11-23 09:02:00,54.7,53.3,30.26,East,91,0.0,0.0,95,0.00,CLR,,0.01,WeatherDisplay:10.37,2014-11-23 00:02:00,
2014-11-23 09:07:00,55.3,53.9,30.26,East,91,0.0,0.0,95,0.00,CLR,,0.01,WeatherDisplay:10.37,2014-11-23 00:07:00,
2014-11-23 09:12:00,55.9,54.2,30.26,East,91,0.0,0.0,94,0.00,CLR,,0.01,WeatherDisplay:10.37,2014-11-23 00:12:00,
2014-11-23 09:17:00,56.4,54.4,30.26,East,91,0.0,0.0,93,0.00,CLR,,0.01,WeatherDisplay:10.37,2014-11-23 00:17:00,
2014-11-23 09:22:00,57.1,55.1,30.26,East,91,0.0,0.0,93,0.00,CLR,,0.01,WeatherDisplay:10.37,2014-11-23 00:22:00,
2014-11-23 09:27:00,57.8,55.5,30.26,East,91,1.2,1.2,92,0.00,CLR,,0.01,WeatherDisplay:10.37,2014-11-23 00:27:00,
2014-11-23 09:32:00,58.4,55.8,30.26,East,91,0.0,0.0,91,0.00,CLR,,0.01,WeatherDisplay:10.37,2014-11-23 00:32:00,
2014-11-23 09:37:00,59.0,56.1,30.26,East,91,1.2,1.2,90,0.00,CLR,,0.01,WeatherDisplay:10.37,2014-11-23 00:37:00,
2014-11-23 09:42:00,59.4,55.8,30.26,East,91,2.3,2.3,88,0.00,CLR,,0.01,WeatherDisplay:10.37,2014-11-23 00:42:00,
2014-11-23 09:47:00,59.9,56.0,30.26,East,91,1.2,1.2,87,0.00,CLR,,0.01,WeatherDisplay:10.37,2014-11-23 00:47:00,
2014-11-23 09:52:00,60.7,56.8,30.26,East,91,0.0,0.0,87,0.00,CLR,,0.01,WeatherDisplay:10.37,2014-11-23 00:52:00,
2014-11-23 09:57:00,61.6,56.7,30.26,East,91,0.0,0.0,84,0.00,CLR,,0.01,WeatherDisplay:10.37,2014-11-23 00:57:00,
2014-11-23 10:02:00,62.3,57.1,30.26,East,91,0.0,0.0,83,0.00,CLR,,0.01,WeatherDisplay:10.37,2014-11-23 01:02:00,
2014-11-23 10:07:00,63.1,56.5,30.26,East,91,0.0,0.0,79,0.00,CLR,,0.01,WeatherDisplay:10.37,2014-11-23 01:07:00,
2014-11-23 10:12:00,63.7,56.0,30.25,NE,49,3.5,3.5,76,0.00,CLR,,0.01,WeatherDisplay:10.37,2014-11-23 01:12:00,
2014-11-23 10:17:00,64.0,55.9,30.25,ENE,68,4.0,4.0,75,0.00,CLR,,0.01,WeatherDisplay:10.37,2014-11-23 01:17:00,
2014-11-23 10:23:00,64.2,56.1,30.25,NNE,18,4.0,4.0,75,0.00,CLR,,0.01,WeatherDisplay:10.37,2014-11-23 01:23:00,
2014-11-23 10:28:00,64.1,54.9,30.26,NNE,33,15.0,15.0,72,0.00,CLR,,0.01,WeatherDisplay:10.37,2014-11-23 01:28:00,
2014-11-23 10:33:00,63.6,54.0,30.25,NNE,28,12.7,12.7,71,0.00,CLR,,0.01,WeatherDisplay:10.37,2014-11-23 01:33:00,
2014-11-23 10:38:00,63.5,54.3,30.25,NE,52,15.0,15.0,72,0.00,CLR,,0.01,WeatherDisplay:10.37,2014-11-23 01:38:00,
2014-11-23 10:43:00,63.5,54.3,30.25,NE,45,15.0,15.0,72,0.00,CLR,,0.01,WeatherDisplay:10.37,2014-11-23 01:43:00,
2014-11-23 10:48:00,63.4,54.6,30.25,NE,51,14.0,14.0,73,0.00,CLR,,0.01,WeatherDisplay:10.37,2014-11-23 01:48:00,
2014-11-23 10:53:00,63.4,54.6,30.24,NNE,32,13.8,13.8,73,0.00,CLR,,0.01,WeatherDisplay:10.37,2014-11-23 01:53:00,
2014-11-23 10:58:00,63.4,54.6,30.24,NE,39,13.8,13.8,73,0.00,CLR,,0.01,WeatherDisplay:10.37,2014-11-23 01:58:00,
2014-11-23 11:03:00,63.6,54.8,30.24,NNE,27,9.2,9.2,73,0.00,CLR,,0.01,WeatherDisplay:10.37,2014-11-23 02:03:00,
2014-11-23 11:08:00,64.0,55.2,30.24,NE,34,11.5,11.5,73,0.00,CLR,,0.01,WeatherDisplay:10.37,2014-11-23 02:08:00,
2014-11-23 11:13:00,64.3,55.5,30.24,NE,37,10.4,10.4,73,0.00,CLR,,0.01,WeatherDisplay:10.37,2014-11-23 02:13:00,
2014-11-23 11:18:00,64.0,54.8,30.24,NNE,25,11.5,11.5,72,0.00,CLR,,0.01,WeatherDisplay:10.37,2014-11-23 02:18:00,
2014-11-23 11:23:00,64.1,54.9,30.24,NE,34,10.4,10.4,72,0.00,CLR,,0.01,WeatherDisplay:10.37,2014-11-23 02:23:00,
2014-11-23 11:28:00,64.5,55.3,30.23,NNE,22,12.7,12.7,72,0.00,CLR,,0.01,WeatherDisplay:10.37,2014-11-23 02:28:00,
2014-11-23 11:33:00,64.5,54.9,30.23,NE,44,12.7,12.7,71,0.00,CLR,,0.01,WeatherDisplay:10.37,2014-11-23 02:33:00,
2014-11-23 11:38:00,64.3,54.3,30.23,ENE,64,11.5,11.5,70,0.00,CLR,,0.01,WeatherDisplay:10.37,2014-11-23 02:38:00,
2014-11-23 11:43:00,64.5,54.9,30.23,NE,43,12.7,12.7,71,0.00,CLR,,0.01,WeatherDisplay:10.37,2014-11-23 02:43:00,
2014-11-23 11:48:00,64.7,55.5,30.23,NE,45,11.5,11.5,72,0.00,CLR,,0.01,WeatherDisplay:10.37,2014-11-23 02:48:00,
2014-11-23 11:53:00,64.9,55.3,30.22,East,79,10.0,10.0,71,0.00,CLR,,0.01,WeatherDisplay:10.37,2014-11-23 02:53:00,
2014-11-23 11:58:00,65.0,55.0,30.22,ENE,75,10.4,10.4,70,0.00,CLR,,0.01,WeatherDisplay:10.37,2014-11-23 02:58:00,
2014-11-23 12:03:00,65.2,54.4,30.21,NNE,30,11.5,11.5,68,0.00,CLR,,0.01,WeatherDisplay:10.37,2014-11-23 03:03:00,
2014-11-23 12:08:00,65.4,54.2,30.21,NE,48,11.5,11.5,67,0.00,CLR,,0.01,WeatherDisplay:10.37,2014-11-23 03:08:00,
2014-11-23 12:13:00,65.2,54.0,30.21,ESE,114,9.2,9.2,67,0.00,CLR,,0.01,WeatherDisplay:10.37,2014-11-23 03:13:00,
2014-11-23 12:18:00,65.1,53.5,30.21,ESE,110,9.2,9.2,66,0.00,CLR,,0.01,WeatherDisplay:10.37,2014-11-23 03:18:00,
2014-11-23 12:23:00,65.1,53.0,30.21,SE,139,9.2,9.2,65,0.00,CLR,,0.01,WeatherDisplay:10.37,2014-11-23 03:23:00,
2014-11-23 12:28:00,65.6,53.5,30.21,ESE,115,11.5,11.5,65,0.00,CLR,,0.01,WeatherDisplay:10.37,2014-11-23 03:28:00,
2014-11-23 12:33:00,65.7,54.0,30.20,NE,51,10.4,10.4,66,0.00,CLR,,0.01,WeatherDisplay:10.37,2014-11-23 03:33:00,
2014-11-23 12:38:00,65.4,53.7,30.20,NE,54,11.5,11.5,66,0.00,CLR,,0.01,WeatherDisplay:10.37,2014-11-23 03:38:00,
2014-11-23 12:43:00,65.2,53.6,30.20,NE,52,11.5,11.5,66,0.00,CLR,,0.01,WeatherDisplay:10.37,2014-11-23 03:43:00,
2014-11-23 12:48:00,65.1,53.9,30.20,NE,45,8.1,8.1,67,0.00,CLR,,0.01,WeatherDisplay:10.37,2014-11-23 03:48:00,
2014-11-23 12:53:00,65.1,53.5,30.20,NNE,23,4.6,4.6,66,0.00,CLR,,0.01,WeatherDisplay:10.37,2014-11-23 03:53:00,
2014-11-23 12:58:00,65.5,54.2,30.20,NNE,30,8.1,8.1,67,0.00,CLR,,0.01,WeatherDisplay:10.37,2014-11-23 03:58:00,
2014-11-23 13:01:00,65.8,54.1,30.19,NNE,14,9.2,9.2,66,0.00,CLR,,0.01,WeatherDisplay:10.37,2014-11-23 04:01:00,
2014-11-23 13:03:00,65.8,54.1,30.19,NNE,14,9.2,9.2,66,0.00,CLR,,0.01,WeatherDisplay:10.37,2014-11-23 04:03:00,
2014-11-23 13:08:00,65.8,54.1,30.19,NNE,14,9.2,9.2,66,0.00,CLR,,0.01,WeatherDisplay:10.37,2014-11-23 04:08:00,